Home > Weather > New City > Past weeks

Flag for USA Weather for the Past 2 Weeks in New City, New York, USA

Now
45 °F

Fog.


Feels Like: 42 °F
Forecast: 43 / 58 °F
Wind: 6 mph from East

Location: Westchester County Airport

Current Time: May 2, 2016 at 9:08:21 AM

Latest Report: May 2, 2016 at 7:56 AM


Visibility: 0 mi

Pressure: 30.00 "Hg

Humidity: 97%

Dew Point: 44 °F

Location of New CityLocation

Historic Weather in New City — Graph

°F

New City Temperature Yesterday

Maximum temperature yesterday: 47 °F (at 2:56 AM)
Minimum temperature yesterday: 42 °F (at 7:56 PM)
Average temperature yesterday: 45 °F

High & Low Weather Summary for the Past Weeks

 TemperatureHumidityPressure
High76 °F (Apr 18, 2:56 PM)97% (Apr 26, 11:56 AM)30.45 "Hg (Apr 26, 11:56 AM)
Low42 °F (May 1, 7:56 PM)12% (Apr 20, 5:56 PM)29.67 "Hg (Apr 26, 2:56 PM)
Average54 °F56%30.03 "Hg
* Reported Apr 17 7:56 AM — May 2 7:56 AM, New City, Weather by CustomWeather, © 2016

Note: Actual official high and low records may vary slightly from our data, if they occured in-between our weather recording intervals... More about our weather records

Advertising

New City Weather History for the Previous 24 Hours

Scroll right to see more
 ConditionsComfort  
Time TempWeatherWind HumidityBarometerVisibility
7:56 AM
Mon, May 2
45 °FFog.6 mph97%30.00 "Hg0 mi
6:56 AM44 °FFog.3 mph96%30.01 "Hg1 mi
5:56 AM44 °FDrizzle. Fog.5 mph96%30.01 "Hg2 mi
4:56 AM44 °FDrizzle. Fog.No wind93%30.02 "Hg2 mi
3:56 AM43 °FDrizzle. Fog.3 mph97%30.04 "Hg2 mi
2:56 AM43 °FDrizzle. Fog.No wind97%30.03 "Hg2 mi
1:56 AM43 °FDrizzle. Fog.3 mph93%30.04 "Hg2 mi
12:56 AM43 °FDrizzle. Fog.No wind93%30.07 "Hg2 mi
11:56 PM
Sun, May 1
42 °FDrizzle. Fog.No wind96%30.09 "Hg2 mi
10:56 PM42 °FDrizzle. Fog.6 mph96%30.09 "Hg2 mi
9:56 PM42 °FLight rain. Fog.7 mph92%30.10 "Hg1 mi
8:56 PM42 °FDrizzle. Fog.6 mph92%30.12 "Hg1 mi
7:56 PM42 °FFog.9 mph96%30.11 "Hg1 mi
6:56 PM43 °FLight rain. Fog.9 mph93%30.11 "Hg1 mi
5:56 PM45 °FLight rain. Fog.9 mph93%30.12 "Hg1 mi
4:56 PM46 °FLight rain. Fog.8 mph93%30.13 "Hg1 mi
3:56 PM46 °FLight rain. Fog.7 mph96%30.14 "Hg2 mi
2:56 PM46 °FLight rain. Fog.9 mph86%30.15 "Hg2 mi
1:56 PM47 °FMostly cloudy.13 mph80%30.16 "Hg7 mi
12:56 PM47 °FLight rain. Mostly cloudy.10 mph90%30.17 "Hg7 mi
11:56 AM47 °FLight rain. Fog.9 mph93%30.19 "Hg6 mi
10:56 AM46 °FLight rain. Fog.6 mph89%30.21 "Hg6 mi
9:56 AM46 °FLight rain. Fog.5 mph83%30.23 "Hg6 mi
Weather by CustomWeather, © 2016

See weather overviewHow to use our weather pages